Weather History for Salinas, CA

Change the Weather History Date:

Sunday, June 16, 2013

  Actual Average Record
Temperature  
Mean Temperature 61 °F 62 °F  
Max Temperature 69 °F 70 °F 99 °F (1943)
Min Temperature 52 °F 53 °F 43 °F (1944)
Degree Days  
Heating Degree Days 4 4  
Month to date heating degree days 71 68  
Since 1 June heating degree days 71 68  
Since 1 July heating degree days 2459 2641  
Cooling Degree Days 0 0  
Month to date cooling degree days 0 0  
Year to date cooling degree days 10 16  
Since 1 June cooling degree days 0 0  
Growing Degree Days 10 (Base 50)    
Moisture  
Dew Point 50 °F    
Average Humidity 72    
Maximum Humidity 89    
Minimum Humidity 55    
Precipitation  
Precipitation 0.00 in 0.00 in 0.44 in (1995)
Month to date precipitation 0.00 0.07  
Year to date precipitation 2.29 8.70  
Since 1 July precipitation 8.93 12.81  
Sea Level Pressure  
Sea Level Pressure 30.10 in    
Wind  
Wind Speed 9 mph (WNW)    
Max Wind Speed 17 mph    
Max Gust Speed 23 mph    
Visibility 10 miles    
Events      
T = Trace of Precipitation, MM = Missing Value Source: NWS Daily Summary

Daily Weather History Graph

Daily Weather History Graph

Search for Another Location

Airport:

Trip Planner

Search our weather history database for the weather conditions in past years. The results will help you decide how hot, cold, wet, or windy it might be!

Date:

Astronomy

Jun. 16, 2013 Rise Set
Actual Time 5:47 AM PDT 8:27 PM PDT
Civil Twilight 5:16 AM PDT 8:57 PM PDT
Nautical Twilight 4:38 AM PDT 9:36 PM PDT
Astronomical Twilight 3:55 AM PDT 10:18 PM PDT
Moon 1:17 PM PDT (6/16) 12:45 AM PDT (6/16)
Length of Visible Light 15h 41m
Length of Day
14h 39m
Waxing Crescent, 51% of the Moon is Illuminated
Jun 16
Waxing Crescent
Jun 23
Full
Jun 29
Last Quarter
Jul 8
New
Jul 15
First Quarter

Hourly Weather History & Observations

Time (PDT) Temp. Dew Point Humidity Pressure Visibility Wind Dir Wind Speed Gust Speed Precip Events Conditions
12:53 AM 54.0 °F 50.0 °F 86% 30.07 in 10.0 mi West 8.1 mph - N/A   Overcast
1:53 AM 53.1 °F 50.0 °F 89% 30.07 in 10.0 mi West 8.1 mph - N/A   Overcast
2:53 AM 53.1 °F 48.9 °F 86% 30.06 in 10.0 mi WNW 5.8 mph - N/A   Overcast
3:53 AM 53.1 °F 48.9 °F 86% 30.06 in 10.0 mi WSW 5.8 mph - N/A   Overcast
4:53 AM 53.1 °F 48.9 °F 86% 30.07 in 10.0 mi WNW 6.9 mph - N/A   Overcast
5:53 AM 52.0 °F 48.9 °F 89% 30.08 in 9.0 mi WSW 5.8 mph - N/A   Overcast
6:53 AM 52.0 °F 48.9 °F 89% 30.09 in 9.0 mi West 4.6 mph - N/A   Overcast
7:53 AM 54.0 °F 48.9 °F 83% 30.12 in 9.0 mi Calm Calm - N/A   Overcast
8:50 AM 55.4 °F 48.2 °F 77% 30.09 in 10.0 mi Calm Calm - N/A   Scattered Clouds
8:53 AM 55.9 °F 48.9 °F 77% 30.12 in 10.0 mi WNW 5.8 mph - N/A   Partly Cloudy
9:53 AM 60.1 °F 50.0 °F 69% 30.12 in 10.0 mi WNW 8.1 mph - N/A   Clear
10:53 AM 63.0 °F 50.0 °F 63% 30.11 in 10.0 mi WNW 11.5 mph - N/A   Clear
11:53 AM 64.9 °F 50.0 °F 58% 30.12 in 10.0 mi WNW 11.5 mph - N/A   Clear
12:53 PM 66.0 °F 50.0 °F 56% 30.12 in 10.0 mi WNW 16.1 mph - N/A   Clear
1:53 PM 66.0 °F 51.1 °F 59% 30.11 in 10.0 mi West 15.0 mph - N/A   Clear
2:53 PM 68.0 °F 51.1 °F 55% 30.10 in 10.0 mi West 15.0 mph - N/A   Clear
3:53 PM 66.9 °F 51.1 °F 57% 30.11 in 10.0 mi WNW 15.0 mph - N/A   Clear
4:53 PM 66.9 °F 51.1 °F 57% 30.10 in 10.0 mi West 12.7 mph - N/A   Clear
5:53 PM 68.0 °F 52.0 °F 56% 30.10 in 10.0 mi West 9.2 mph - N/A   Clear
6:53 PM 66.0 °F 51.1 °F 59% 30.11 in 10.0 mi WNW 11.5 mph - N/A   Clear
7:53 PM 63.0 °F 51.1 °F 65% 30.12 in 10.0 mi West 10.4 mph - N/A   Clear
8:53 PM 61.0 °F 50.0 °F 67% 30.12 in 10.0 mi WNW 10.4 mph - N/A   Clear
9:53 PM 60.1 °F 50.0 °F 69% 30.14 in 10.0 mi WNW 9.2 mph - N/A   Clear
10:53 PM 59.0 °F 50.0 °F 72% 30.14 in 10.0 mi NNW 10.4 mph - N/A   Clear
11:53 PM 57.9 °F 50.0 °F 75% 30.13 in 10.0 mi NNW 9.2 mph - N/A   Clear